Location: Alafon
(8.4500°N, 4.2333°E)
Time: 07:52:26
(UTC+00:00)

A-11 Canister half - Pass Details

Date: 12 August 2021
Orbit: 1515 x 1685 km, 47.2° (Epoch: 21 September)

Event Time Altitude Azimuth Distance (km) Brightness Sun altitude
Rises 10:22:43 0° 210° (SSW) 4,650 11.4 68.2°
Reaches altitude 10° 10:25:48 10° 206° (SSW) 3,668 11.0 68.9°
Maximum altitude 10:34:49 59° 129° (SE) 1,720 10.7 71.0°
Drops below altitude 10° 10:43:59 10° 52° (NE) 3,732 11.4 73.1°
Sets 10:47:08 0° 48° (NE) 4,737 11.8 73.8°
